TimeEST,TemperatureF,Dew PointF,Humidity,Sea Level PressureIn,VisibilityMPH,Wind Direction,Wind SpeedMPH,Gust SpeedMPH,PrecipitationIn,Events,Conditions,WindDirDegrees,DateUTC
12:56 AM,21.9,17.1,82,30.35,10.0,Calm,Calm,-,N/A,,Clear,0,2013-02-07 05:56:00
1:56 AM,21.9,17.1,82,30.38,10.0,SSE,3.5,-,N/A,,Partly Cloudy,160,2013-02-07 06:56:00
2:56 AM,21.9,17.1,82,30.39,9.0,Calm,Calm,-,N/A,,Scattered Clouds,0,2013-02-07 07:56:00
3:56 AM,19.9,16.0,85,30.39,8.0,Calm,Calm,-,N/A,,Scattered Clouds,0,2013-02-07 08:56:00
4:56 AM,21.9,18.0,85,30.39,9.0,Calm,Calm,-,N/A,,Mostly Cloudy,0,2013-02-07 09:56:00
5:56 AM,23.0,18.0,81,30.41,9.0,ENE,3.5,-,N/A,,Mostly Cloudy,70,2013-02-07 10:56:00
6:56 AM,24.1,18.0,77,30.45,10.0,Calm,Calm,-,N/A,,Mostly Cloudy,0,2013-02-07 11:56:00
7:56 AM,25.0,18.0,75,30.46,8.0,Calm,Calm,-,N/A,,Overcast,0,2013-02-07 12:56:00
8:56 AM,27.0,19.0,72,30.46,9.0,Calm,Calm,-,N/A,,Clear,0,2013-02-07 13:56:00
9:56 AM,28.9,19.9,69,30.46,10.0,SE,4.6,-,N/A,,Overcast,130,2013-02-07 14:56:00
10:56 AM,32.0,19.0,59,30.45,10.0,SE,9.2,-,N/A,,Overcast,130,2013-02-07 15:56:00
11:56 AM,33.1,19.0,56,30.43,10.0,SE,8.1,-,N/A,,Overcast,130,2013-02-07 16:56:00
12:56 PM,34.0,18.0,52,30.40,10.0,SE,9.2,-,N/A,,Overcast,130,2013-02-07 17:56:00
1:56 PM,34.0,16.0,48,30.37,10.0,SE,9.2,-,N/A,,Overcast,130,2013-02-07 18:56:00
2:56 PM,35.1,15.1,44,30.35,10.0,SE,10.4,-,N/A,,Overcast,130,2013-02-07 19:56:00
3:56 PM,35.1,14.0,42,30.34,10.0,ESE,12.7,-,N/A,,Overcast,120,2013-02-07 20:56:00
4:56 PM,34.0,16.0,48,30.33,10.0,SE,9.2,-,N/A,,Overcast,130,2013-02-07 21:56:00
5:56 PM,34.0,15.1,46,30.33,10.0,SE,8.1,-,N/A,,Overcast,130,2013-02-07 22:56:00
6:56 PM,34.0,18.0,52,30.34,10.0,SE,6.9,-,N/A,,Overcast,130,2013-02-07 23:56:00
7:56 PM,34.0,17.1,50,30.33,10.0,ESE,6.9,-,N/A,,Overcast,110,2013-02-08 00:56:00
8:56 PM,33.1,18.0,54,30.33,10.0,ESE,9.2,-,N/A,,Overcast,120,2013-02-08 01:56:00
9:27 PM,33.8,17.6,52,30.30,10.0,ESE,12.7,-,N/A,,Overcast,120,2013-02-08 02:27:00
9:56 PM,33.1,19.0,56,30.30,10.0,ESE,13.8,-,N/A,,Overcast,120,2013-02-08 02:56:00
10:56 PM,32.0,21.9,66,30.28,10.0,ESE,10.4,-,N/A,,Overcast,120,2013-02-08 03:56:00
11:56 PM,32.0,21.0,64,30.25,10.0,ESE,9.2,-,N/A,,Overcast,110,2013-02-08 04:56:00